DELTA 1 R/B, 1433

Orbit data source: Space-Track

DELTA 1 R/B, 1433 is space debris in SSO originally from a launch on Fri, 02 Jul 1965 UTC launched from the Air Force Eastern Test Range (AFETR). Debris objects in space refer to the collection of defunct objects orbiting the Earth. Examples of debris include non-operational satellites, rocket bodies, and fragments generated from explosions, collisions, or faulty payload assembly.

Loading next visibility...
Identifier
1433, 1965-051B
Orbit
SSO
Last TLE update
9 hours ago
Origin
Manufacturer
ABL
Mission
Spacecraft
Bus & Motor
ALTAIR, Unknown motor
Mass
60 kg wet, 60 kg dry
Launch date (UTC)
1965-07-02 (60 years ago)
Launch vehicle
Unknown
Launch site
Air Force Eastern Test Range (AFETR)
Object type
Payload
Rocket body
Debris
Shape & HBR
Cyl, 1.5 m
Radar Cross Section
0.687 m², Medium (>0.1 m² and < 1m²)

Expand to show TLE details & history

TLE from 9 hours ago
0 DELTA 1 R/B
1 01433U 65051B   25191.62614245  .00000579  00000-0  12549-3 0  9991
2 01433  98.5295 334.1054 0038235 252.1351 107.5677 14.61707450144918
Epoch: 2025-07-10T15:01Z
TLE epoch observation values (Epoch: 2025-07-10T15:01:38.707Z)
Latitude
-0.00005°
Longitude
179.9044°
Altitude
698.893 km
Speed
7.502 km/s
True Right ascension
22h 16m 25s
True Declination
0° 00' 00"
Sunlit
Object was in full shadow at epoch
Visualization orbit readout
Latitude
-39.73935°
Longitude
-6.82334°
Altitude
679.643 km
Speed
7.528 km/s
Apparent Right ascension
05h 42m 21s
Apparent Declination
-67° 10' 41"
Sunlit
Object is in daylight
Visualization observer readout
Local Sidereal Time
12:31:05
Azimuth
210.086° SW
Elevation
-40.86°
Doppler factor
1
Orbital elements
Apogee altitude
711.765 km
Perigee altitude
657.755 km
Semi-major axis
7,062.897 km
Eccentricity
0.00382
Inclination
98.5295°
RAAN
334.1054°
Arg. of periapsis
252.1351°
True anomaly
Unknown
Mean anomaly
107.5677°
Eccentric anomaly
Unknown
Mean motion
3.65653 °/min
Orbital period
98.45 mins
BSTAR
0.00012549
Loading maneuver chart data...
Loading SW <> Apogee altitude chart data...
Loading historical data...
Loading historical data...
Loading historical data...
Loading historical data...
Loading historical data...
Loading historical data...
Loading historical data...
Other satellites on launch #51 in the year 1965 (1965-07-02 UTC)

DELTA 1 R/B Visibility forecast

Observer location: undefined°, undefined°

Span
Click to sort rows by Start time (UTC) header in descending order
Start Az.
Max El. time (UTC)
Max El. Az.
Max El.
End time (UTC)
End Az.
9 mins2025-07-11 09:12:53.550Z152.584° SSE2025-07-11 09:16:53.550Z98.291° ESE40.88°2025-07-11 09:21:53.550Z353.845° N
7 mins2025-07-11 22:49:53.550Z355.219° N2025-07-11 22:52:53.550Z273.846° WNW38.43°2025-07-11 22:56:53.550Z212.353° SW
|